timestamp,wind_dir_avg,wind_spd_avg,wind_spd_max_dir,wind_spd_gust,battery_voltage,lat,long
2021-03-02 00:04:01+00:00,99.0,4.42,90.0,6.04,12.49,47.59359,-54.27349
2021-03-02 00:14:01+00:00,99.0,2.98,115.0,4.76,12.41,47.59359,-54.27349
2021-03-02 00:24:01+00:00,90.0,2.76,88.0,3.71,12.41,47.59359,-54.27349
2021-03-02 00:34:01+00:00,118.0,3.24,131.0,4.62,12.41,47.59359,-54.27349
2021-03-02 00:44:01+00:00,117.0,4.09,131.0,5.3,12.41,47.59359,-54.27349
2021-03-02 00:54:01+00:00,103.0,3.34,82.0,4.85,12.41,47.59359,-54.27349
2021-03-02 01:04:01+00:00,113.0,3.51,123.0,5.46,12.41,47.59359,-54.27349
2021-03-02 01:14:01+00:00,108.0,3.29,131.0,5.64,12.33,47.59359,-54.27349
2021-03-02 01:24:01+00:00,116.0,4.49,123.0,5.94,12.33,47.59359,-54.27349
2021-03-02 01:34:01+00:00,123.0,4.19,122.0,5.57,12.33,47.59359,-54.27349
2021-03-02 01:44:01+00:00,109.0,2.81,120.0,4.81,12.33,47.59359,-54.27349
2021-03-02 01:54:01+00:00,114.0,3.84,116.0,5.08,12.33,47.59359,-54.27349
2021-03-02 02:04:01+00:00,117.0,6.1,114.0,8.71,12.33,47.59359,-54.27349
2021-03-02 02:14:01+00:00,121.0,6.91,124.0,8.56,12.25,47.59359,-54.27349
2021-03-02 02:24:01+00:00,115.0,5.43,128.0,7.29,12.25,47.59359,-54.27349
2021-03-02 02:34:01+00:00,118.0,5.43,113.0,7.89,12.25,47.59359,-54.27349
2021-03-02 02:44:01+00:00,118.0,5.91,126.0,8.5,12.25,47.59359,-54.27349
2021-03-02 02:54:01+00:00,113.0,3.75,124.0,5.32,12.25,47.59359,-54.27349
2021-03-02 03:04:01+00:00,126.0,6.26,121.0,7.99,12.25,47.59359,-54.27349
2021-03-02 03:14:01+00:00,130.0,7.42,139.0,8.77,12.25,47.59359,-54.27349
2021-03-02 03:24:01+00:00,128.0,6.32,125.0,7.14,12.25,47.59359,-54.27349
2021-03-02 03:34:01+00:00,120.0,5.34,129.0,6.61,12.25,47.59359,-54.27349
2021-03-02 03:44:01+00:00,106.0,3.12,113.0,4.75,12.25,47.59359,-54.27349
2021-03-02 03:54:01+00:00,108.0,3.08,117.0,4.8,12.25,47.59359,-54.27349
2021-03-02 04:04:01+00:00,90.0,2.41,116.0,4.11,12.25,47.59359,-54.27349
2021-03-02 04:14:01+00:00,98.0,2.79,99.0,4.05,12.33,47.59359,-54.27349
2021-03-02 04:24:01+00:00,94.0,3.28,117.0,4.73,12.33,47.59359,-54.27349
2021-03-02 04:34:01+00:00,119.0,5.44,127.0,7.16,12.33,47.59359,-54.27349
2021-03-02 04:44:01+00:00,126.0,5.34,133.0,7.04,12.33,47.59359,-54.27349
2021-03-02 04:54:01+00:00,130.0,5.71,136.0,6.63,12.33,47.59359,-54.27349
2021-03-02 05:04:01+00:00,125.0,6.99,120.0,8.25,12.33,47.59359,-54.27349
2021-03-02 05:14:01+00:00,133.0,7.44,134.0,8.61,12.17,47.59359,-54.27349
2021-03-02 05:24:01+00:00,126.0,8.01,126.0,9.68,12.17,47.59359,-54.27349
2021-03-02 05:34:01+00:00,126.0,8.18,120.0,9.76,12.17,47.59359,-54.27349
2021-03-02 05:44:01+00:00,127.0,6.26,124.0,7.73,12.17,47.59359,-54.27349
2021-03-02 05:54:01+00:00,125.0,6.47,125.0,8.16,12.17,47.59359,-54.27349
2021-03-02 06:04:01+00:00,131.0,7.21,130.0,8.94,12.17,47.59359,-54.27349
2021-03-02 06:14:01+00:00,130.0,6.64,129.0,8.04,12.25,47.59359,-54.27349
2021-03-02 06:24:01+00:00,130.0,8.71,132.0,10.59,12.25,47.59359,-54.27349
2021-03-02 06:34:01+00:00,124.0,7.93,124.0,9.89,12.25,47.59359,-54.27349
2021-03-02 06:44:01+00:00,122.0,7.93,121.0,9.97,12.25,47.59359,-54.27349
2021-03-02 06:54:01+00:00,119.0,7.07,117.0,9.24,12.25,47.59359,-54.27349
2021-03-02 07:04:01+00:00,141.0,5.01,144.0,6.2,12.25,47.59359,-54.27349
2021-03-02 07:14:01+00:00,145.0,5.58,138.0,6.26,12.17,47.59359,-54.27349
2021-03-02 07:24:01+00:00,142.0,6.43,147.0,8.05,12.17,47.59359,-54.27349
2021-03-02 07:34:01+00:00,142.0,7.98,140.0,9.16,12.17,47.59359,-54.27349
2021-03-02 07:44:01+00:00,144.0,10.52,141.0,11.81,12.17,47.59359,-54.27349
2021-03-02 07:54:01+00:00,143.0,10.68,139.0,12.43,12.17,47.59359,-54.27349
2021-03-02 08:04:01+00:00,148.0,10.06,145.0,11.26,12.17,47.59359,-54.27349
2021-03-02 08:14:01+00:00,156.0,10.69,158.0,12.49,12.17,47.59359,-54.27349
2021-03-02 08:24:01+00:00,154.0,10.57,153.0,12.8,12.17,47.59359,-54.27349
2021-03-02 08:34:01+00:00,149.0,11.97,147.0,14.63,12.17,47.59359,-54.27349
2021-03-02 08:44:01+00:00,147.0,11.55,151.0,13.98,12.17,47.59359,-54.27349
2021-03-02 08:54:01+00:00,150.0,11.85,153.0,13.87,12.17,47.59359,-54.27349
2021-03-02 09:04:01+00:00,152.0,11.17,159.0,13.56,12.17,47.59359,-54.27349
2021-03-02 09:14:01+00:00,150.0,12.2,150.0,14.08,12.17,47.59359,-54.27349
2021-03-02 09:24:01+00:00,145.0,12.49,144.0,14.88,12.17,47.59359,-54.27349
2021-03-02 09:34:01+00:00,146.0,11.51,155.0,14.13,12.17,47.59359,-54.27349
2021-03-02 09:44:01+00:00,145.0,10.3,143.0,11.41,12.17,47.59359,-54.27349
2021-03-02 09:54:01+00:00,142.0,9.01,147.0,12.21,12.17,47.59359,-54.27349
2021-03-02 10:04:01+00:00,140.0,8.12,134.0,10.03,12.17,47.59359,-54.27349
2021-03-02 10:14:01+00:00,144.0,9.42,152.0,11.59,12.09,47.59359,-54.27349
2021-03-02 10:24:01+00:00,144.0,11.03,147.0,13.32,12.09,47.59359,-54.27349
2021-03-02 10:34:01+00:00,149.0,10.47,156.0,11.84,12.09,47.59359,-54.27349
2021-03-02 10:44:01+00:00,153.0,11.96,163.0,14.38,12.09,47.59359,-54.27349
2021-03-02 10:54:01+00:00,152.0,12.21,160.0,14.48,12.09,47.59359,-54.27349
2021-03-02 11:04:01+00:00,172.0,7.48,166.0,8.98,12.09,47.59359,-54.27349
2021-03-02 11:14:01+00:00,184.0,8.56,192.0,10.92,12.25,47.59359,-54.27349
2021-03-02 11:24:01+00:00,173.0,7.93,175.0,9.74,12.25,47.59359,-54.27349
2021-03-02 11:34:01+00:00,315.0,0.01,0.0,0.0,12.25,47.59359,-54.27349
2021-03-02 11:44:01+00:00,137.0,11.77,131.0,13.59,12.25,47.59359,-54.27349
2021-03-02 11:54:01+00:00,144.0,8.19,156.0,11.04,12.25,47.59359,-54.27349
2021-03-02 12:04:01+00:00,152.0,13.62,156.0,16.5,12.25,47.59359,-54.27349
2021-03-02 12:14:01+00:00,137.0,6.27,157.0,12.68,12.25,47.59359,-54.27349
2021-03-02 12:24:01+00:00,142.0,9.32,153.0,12.99,12.25,47.59359,-54.27349
2021-03-02 12:34:01+00:00,148.0,10.3,165.0,14.08,12.25,47.59359,-54.27349
2021-03-02 12:44:01+00:00,147.0,11.28,147.0,14.22,12.25,47.59359,-54.27349
2021-03-02 12:54:01+00:00,142.0,15.06,134.0,17.52,12.25,47.59359,-54.27349
2021-03-02 13:04:01+00:00,142.0,14.09,145.0,17.72,12.25,47.59359,-54.27349
2021-03-02 13:14:01+00:00,140.0,15.99,137.0,21.78,12.25,47.59359,-54.27349
2021-03-02 13:24:01+00:00,137.0,14.98,141.0,17.76,12.25,47.59359,-54.27349
2021-03-02 13:34:01+00:00,137.0,17.17,136.0,22.55,12.25,47.59359,-54.27349
2021-03-02 13:44:01+00:00,137.0,15.71,129.0,19.34,12.25,47.59359,-54.27349
2021-03-02 13:54:01+00:00,148.0,14.09,144.0,17.1,12.25,47.59359,-54.27349
2021-03-02 14:04:01+00:00,144.0,17.28,158.0,22.4,12.25,47.59359,-54.27349
2021-03-02 14:14:01+00:00,145.0,19.26,146.0,21.95,12.33,47.59359,-54.27349
2021-03-02 14:24:01+00:00,148.0,16.71,149.0,20.11,12.33,47.59359,-54.27349
2021-03-02 14:34:01+00:00,145.0,17.11,148.0,20.65,12.33,47.59359,-54.27349
2021-03-02 14:44:01+00:00,152.0,13.43,145.0,15.89,12.33,47.59359,-54.27349
2021-03-02 14:54:01+00:00,151.0,14.07,153.0,15.95,12.33,47.59359,-54.27349
2021-03-02 15:04:01+00:00,158.0,17.13,158.0,19.49,12.33,47.59359,-54.27349
2021-03-02 15:14:01+00:00,154.0,13.98,159.0,15.59,12.49,47.59359,-54.27349
2021-03-02 15:24:01+00:00,169.0,13.89,164.0,15.54,12.49,47.59359,-54.27349
2021-03-02 15:34:01+00:00,164.0,15.76,167.0,18.84,12.49,47.59359,-54.27349
2021-03-02 15:44:01+00:00,174.0,14.47,170.0,16.99,12.49,47.59359,-54.27349
2021-03-02 15:54:01+00:00,168.0,16.69,165.0,19.74,12.49,47.59359,-54.27349
2021-03-02 16:04:01+00:00,170.0,11.62,166.0,15.48,12.49,47.59359,-54.27349
2021-03-02 16:14:01+00:00,181.0,13.14,182.0,15.8,13.21,47.59359,-54.27349
2021-03-02 16:24:01+00:00,191.0,13.26,186.0,14.94,13.21,47.59359,-54.27349
2021-03-02 16:34:01+00:00,192.0,13.81,194.0,16.66,13.21,47.59359,-54.27349
2021-03-02 16:44:01+00:00,213.0,13.05,212.0,15.12,13.21,47.59359,-54.27349
2021-03-02 16:54:01+00:00,212.0,11.31,212.0,13.68,13.21,47.59359,-54.27349
2021-03-02 17:04:01+00:00,216.0,10.12,227.0,11.43,13.21,47.59359,-54.27349
2021-03-02 17:14:01+00:00,238.0,8.64,239.0,10.58,13.76,47.59359,-54.27349
2021-03-02 17:24:01+00:00,240.0,7.64,239.0,8.81,13.76,47.59359,-54.27349
2021-03-02 17:34:01+00:00,247.0,6.44,245.0,7.62,13.76,47.59359,-54.27349
2021-03-02 17:44:01+00:00,265.0,5.48,262.0,6.06,13.76,47.59359,-54.27349
2021-03-02 17:54:01+00:00,266.0,7.97,263.0,9.14,13.76,47.59359,-54.27349
2021-03-02 18:04:01+00:00,251.0,5.99,251.0,7.17,13.76,47.59359,-54.27349
2021-03-02 18:14:01+00:00,244.0,7.45,245.0,8.25,13.84,47.59359,-54.27349
2021-03-02 18:24:01+00:00,256.0,7.95,258.0,9.31,13.84,47.59359,-54.27349
2021-03-02 18:34:01+00:00,246.0,6.08,247.0,8.29,13.84,47.59359,-54.27349
2021-03-02 18:44:01+00:00,233.0,5.55,233.0,6.19,13.84,47.59359,-54.27349
2021-03-02 18:54:01+00:00,228.0,5.53,222.0,6.17,13.84,47.59359,-54.27349
2021-03-02 19:04:01+00:00,236.0,6.67,246.0,8.97,13.84,47.59359,-54.27349
2021-03-02 19:14:01+00:00,233.0,5.47,233.0,6.2,14.16,47.59359,-54.27349
2021-03-02 19:24:01+00:00,241.0,7.99,240.0,8.73,14.16,47.59359,-54.27349
2021-03-02 19:34:01+00:00,243.0,10.02,243.0,11.37,14.16,47.59359,-54.27349
2021-03-02 19:44:01+00:00,253.0,9.94,255.0,10.96,14.16,47.59359,-54.27349
2021-03-02 19:54:01+00:00,247.0,9.26,249.0,10.4,14.16,47.59359,-54.27349
2021-03-02 20:04:01+00:00,251.0,9.65,254.0,10.87,14.16,47.59359,-54.27349
2021-03-02 20:14:01+00:00,256.0,8.95,256.0,10.27,13.84,47.59359,-54.27349
2021-03-02 20:24:01+00:00,240.0,8.19,240.0,9.33,13.84,47.59359,-54.27349
2021-03-02 20:34:01+00:00,245.0,9.05,245.0,10.33,13.84,47.59359,-54.27349
2021-03-02 20:44:01+00:00,243.0,8.03,253.0,9.09,13.84,47.59359,-54.27349
2021-03-02 20:54:01+00:00,258.0,6.83,264.0,7.68,13.84,47.59359,-54.27349
2021-03-02 21:04:01+00:00,248.0,6.72,246.0,7.32,13.84,47.59359,-54.27349
2021-03-02 21:14:01+00:00,250.0,7.22,250.0,7.89,13.29,47.59359,-54.27349
2021-03-02 21:24:01+00:00,265.0,8.29,266.0,9.22,13.29,47.59359,-54.27349
2021-03-02 21:34:01+00:00,263.0,7.04,261.0,7.59,13.29,47.59359,-54.27349
2021-03-02 21:44:01+00:00,269.0,7.05,271.0,7.88,13.29,47.59359,-54.27349
2021-03-02 21:54:01+00:00,268.0,6.21,268.0,7.39,13.29,47.59359,-54.27349
2021-03-02 22:04:01+00:00,253.0,4.29,247.0,4.65,13.29,47.59359,-54.27349
2021-03-02 22:14:01+00:00,247.0,2.84,248.0,3.13,12.65,47.59359,-54.27349
2021-03-02 22:24:01+00:00,221.0,2.79,223.0,3.32,12.65,47.59359,-54.27349
2021-03-02 22:34:01+00:00,219.0,3.46,221.0,3.76,12.65,47.59359,-54.27349
2021-03-02 22:44:01+00:00,219.0,3.85,228.0,4.76,12.65,47.59359,-54.27349
2021-03-02 22:54:01+00:00,211.0,6.22,222.0,7.65,12.65,47.59359,-54.27349
2021-03-02 23:04:01+00:00,218.0,6.21,216.0,6.68,12.65,47.59359,-54.27349
2021-03-02 23:14:01+00:00,240.0,12.35,243.0,14.09,12.57,47.59359,-54.27349
2021-03-02 23:24:01+00:00,277.0,7.88,282.0,9.07,12.57,47.59359,-54.27349
2021-03-02 23:34:01+00:00,312.0,7.68,311.0,8.66,12.57,47.59359,-54.27349
2021-03-02 23:44:01+00:00,303.0,6.43,303.0,7.28,12.57,47.59359,-54.27349
2021-03-02 23:54:01+00:00,296.0,6.47,296.0,7.72,12.57,47.59359,-54.27349
